FW8197 Weather Reports


time (UTC)temp
C
wind
direction
speed
KPH
gust
KPH
rain 1hr
cm
rain 24hr
cm
rain mn
cm
humidity
%
barometer
mb
20260508121604 14 53 3.2 6.4 0.00 0.00 0.00 67 1016.7
20260508120100 13 86 3.2 8.0 0.00 0.00 0.00 69 1016.7
20260508114557 13 17 3.2 8.0 0.00 0.00 0.00 71 1016.7
20260508113100 13 58 6.4 12.9 0.00 0.00 0.00 70 1016.6
20260508111601 13 8 4.8 9.7 0.00 0.00 0.00 69 1016.6
20260508110105 13 61 1.6 4.8 0.00 0.00 0.00 71 1016.5
20260508104602 13 0 3.2 8.0 0.00 0.00 0.00 70 1016.6
20260508103141 13 26 3.2 6.4 0.00 0.00 0.00 72 1016.4
20260508101619 13 137 1.6 6.4 0.00 0.00 0.00 72 1016.4
20260508100058 13 64 3.2 9.7 0.00 0.00 0.00 75 1016.4
20260508094612 12 0 1.6 6.4 0.00 0.00 0.00 78 1016.3
20260508093057 12 0 0.0 4.8 0.00 0.00 0.00 77 1016.5
20260508091555 12 105 1.6 6.4 0.00 0.00 0.00 78 1016.6
20260508090113 12 87 1.6 6.4 0.00 0.00 0.00 77 1016.4
20260508084611 13 66 0.0 6.4 0.00 0.00 0.00 77 1016.5
20260508083115 12 89 3.2 6.4 0.00 0.00 0.00 78 1016.4
20260508081555 12 0 0.0 4.8 0.00 0.00 0.00 84 1016.4
20260508080056 11 110 0.0 6.4 0.00 0.00 0.00 83 1016.4
20260508074600 11 86 1.6 4.8 0.00 0.00 0.00 82 1016.2
20260508073058 11 0 0.0 0.0 0.00 0.00 0.00 86 1016.1
20260508071556 10 48 0.0 3.2 0.00 0.00 0.00 92 1016.0
20260508070057 7 35 0.0 1.6 0.00 0.00 0.00 94 1015.7
20260508064615 7 0 0.0 0.0 0.00 0.00 0.00 95 1015.7
20260508063103 6 0 0.0 1.6 0.00 0.00 0.00 94 1015.7
20260508061600 6 0 0.0 1.6 0.00 0.00 0.00 95 1015.7
20260508060058 6 0 0.0 0.0 0.00 0.00 0.00 95 1015.5
20260508054604 5 0 0.0 0.0 0.00 0.00 0.00 95 1015.3
20260508053058 5 0 0.0 0.0 0.00 0.00 0.00 94 1015.2
20260508051602 5 0 0.0 0.0 0.00 0.00 0.00 94 1015.0
20260508050100 5 0 0.0 0.0 0.00 0.00 0.00 94 1014.9
20260508044601 5 0 0.0 0.0 0.00 0.00 0.00 93 1015.0
20260508043103 5 0 0.0 0.0 0.00 0.00 0.00 94 1014.9
20260508041600 5 0 0.0 0.0 0.00 0.00 0.00 93 1014.8
20260508040056 5 0 0.0 0.0 0.00 0.00 0.00 93 1014.6
20260508034604 5 0 0.0 0.0 0.00 0.00 0.00 93 1014.8
20260508033057 6 0 0.0 1.6 0.00 0.00 0.00 92 1014.6
20260508031600 6 0 0.0 0.0 0.00 0.00 0.00 91 1014.6
20260508030103 6 0 0.0 0.0 0.00 0.00 0.00 91 1014.6
20260508024556 7 0 0.0 0.0 0.00 0.00 0.00 91 1014.6
20260508023059 7 0 0.0 0.0 0.00 0.00 0.00 90 1014.5
20260508021558 7 0 0.0 0.0 0.00 0.00 0.00 89 1014.5
20260508020057 8 0 0.0 0.0 0.00 0.00 0.00 88 1014.4
20260508014559 8 0 0.0 0.0 0.00 0.00 0.00 87 1014.5
20260508013100 8 0 0.0 0.0 0.00 0.00 0.00 87 1014.6
20260508011556 8 0 0.0 3.2 0.00 0.00 0.00 87 1014.5
20260508010057 9 0 0.0 1.6 0.00 0.00 0.00 89 1014.5
20260508004601 9 0 0.0 4.8 0.00 0.00 0.00 89 1014.6
20260508003107 9 0 0.0 0.0 0.00 0.00 0.00 89 1014.6
20260508001600 9 0 0.0 0.0 0.00 0.00 0.00 89 1014.7
20260508000100 9 0 0.0 0.0 0.00 0.00 0.00 88 1014.7
20260507234601 9 0 0.0 1.6 0.00 0.00 0.00 88 1014.6
20260507233100 9 0 0.0 3.2 0.00 0.00 0.00 88 1014.6
20260507231603 9 240 0.0 3.2 0.00 0.00 0.00 87 1014.5
20260507230102 9 266 1.6 3.2 0.00 0.00 0.00 87 1014.6
20260507224620 9 256 0.0 4.8 0.00 0.00 0.00 87 1014.4
20260507223101 10 158 0.0 4.8 0.00 0.00 0.00 86 1014.3
20260507221558 10 243 0.0 3.2 0.00 0.00 0.00 85 1014.3
20260507220058 10 196 0.0 4.8 0.00 0.00 0.00 84 1014.3
20260507214604 10 181 0.0 3.2 0.00 0.00 0.00 84 1014.3
20260507213101 10 0 0.0 3.2 0.00 0.00 0.00 83 1014.2
20260507211626 10 283 0.0 3.2 0.00 0.00 0.00 83 1014.1
20260507204605 10 257 1.6 4.8 0.00 0.00 0.00 82 1013.9
20260507203101 10 248 1.6 6.4 0.00 0.00 0.00 82 1013.6
20260507201612 10 233 3.2 9.7 0.00 0.00 0.00 81 1013.5
20260507200104 10 257 3.2 9.7 0.00 0.00 0.00 79 1013.3
20260507194604 11 257 6.4 16.1 0.00 0.00 0.00 78 1013.1
20260507193057 11 205 3.2 9.7 0.00 0.00 0.00 79 1012.9
20260507191600 11 148 1.6 9.7 0.00 0.00 0.00 78 1012.8
20260507190057 11 151 1.6 8.0 0.00 0.00 0.00 77 1012.8
20260507184558 11 239 1.6 8.0 0.00 0.00 0.00 76 1012.9
20260507183059 12 255 3.2 9.7 0.00 0.00 0.00 76 1012.7
20260507181559 12 151 4.8 14.5 0.00 0.00 0.00 75 1012.5
20260507180059 12 195 4.8 9.7 0.00 0.00 0.00 75 1012.5
20260507174557 12 224 4.8 12.9 0.00 0.00 0.00 75 1012.4
20260507173101 12 145 3.2 6.4 0.00 0.00 0.00 75 1012.2
20260507171602 12 245 3.2 9.7 0.00 0.00 0.00 73 1012.4
20260507170058 12 226 4.8 14.5 0.00 0.00 0.00 71 1012.3
20260507164559 12 278 4.8 11.3 0.00 0.00 0.00 69 1012.3
20260507163057 13 263 3.2 6.4 0.00 0.00 0.00 69 1012.3
20260507161600 13 260 3.2 6.4 0.00 0.00 0.00 68 1012.2
20260507160108 13 177 1.6 6.4 0.00 0.00 0.00 69 1012.2
20260507154559 13 285 1.6 9.7 0.00 0.00 0.00 68 1012.5
20260507153100 13 254 4.8 6.4 0.00 0.00 0.00 66 1012.4
20260507151558 13 222 4.8 9.7 0.00 0.00 0.00 66 1012.4
20260507150057 13 247 6.4 14.5 0.00 0.00 0.00 64 1012.4
20260507144556 13 262 4.8 12.9 0.00 0.00 0.00 58 1012.4
20260507143105 14 270 4.8 8.0 0.00 0.00 0.00 64 1012.4
20260507141559 13 243 4.8 12.9 0.00 0.00 0.00 64 1012.5
20260507140111 14 200 4.8 14.5 0.00 0.00 0.00 61 1012.6
20260507134556 14 229 4.8 11.3 0.00 0.00 0.00 59 1012.4
20260507133058 14 236 4.8 9.7 0.00 0.00 0.00 59 1012.7
20260507131600 13 283 4.8 16.1 0.00 0.00 0.00 60 1012.7
20260507130058 13 276 6.4 16.1 0.00 0.00 0.00 58 1012.8
20260507124559 13 153 6.4 17.7 0.00 0.00 0.00 62 1012.8
20260507123059 13 122 4.8 12.9 0.00 0.00 0.00 62 1012.9